AFR31LY EDDH-LFPG

Flight info

Callsign AFR31LY
Flight time 1h 17m
Altitude 36000
Route HABFU1G/33 HABFU Y348 DOMEG DCT IDOSA UN857 TOLVU/N0442F350 DCT RAPOR DCT VEDUS
Aircraft A320/M-SDE3FGHIRWY/LB1

Departure

Time 2026-04-25 16:29
Airport Hamburg Helmut Schmidt Airport (EDDH)

Arrival

Time 2026-04-25 17:47
Airport Charles de Gaulle International Airport (LFPG)
Time Latitude Longitude Altitude Speed Heading
2026-04-25 15:48 53.62889 10.00220 46 ft 0 kts 122°
2026-04-25 16:21 53.62897 10.00198 45 ft 4 kts 122°
2026-04-25 16:21 53.62912 10.00159 46 ft 4 kts 122°
2026-04-25 16:21 53.62924 10.00126 44 ft 2 kts 122°
2026-04-25 16:22 53.62939 10.00097 42 ft 4 kts 166°
2026-04-25 16:22 53.62959 10.00105 43 ft 4 kts 213°
2026-04-25 16:22 53.62968 10.00115 43 ft 0 kts 213°
2026-04-25 16:25 53.62968 10.00114 47 ft 0 kts 213°
2026-04-25 16:26 53.62964 10.00110 45 ft 1 kts 213°
2026-04-25 16:26 53.62957 10.00103 47 ft 3 kts 213°
2026-04-25 16:26 53.62928 10.00071 48 ft 5 kts 213°
2026-04-25 16:26 53.62900 10.00044 48 ft 4 kts 198°
2026-04-25 16:27 53.62876 10.00035 48 ft 3 kts 193°
2026-04-25 16:27 53.62865 10.00019 48 ft 3 kts 229°
2026-04-25 16:27 53.62849 9.99977 48 ft 5 kts 245°
2026-04-25 16:27 53.62844 9.99958 48 ft 1 kts 245°
2026-04-25 16:28 53.62834 9.99922 45 ft 5 kts 245°
2026-04-25 16:28 53.62811 9.99841 45 ft 10 kts 244°
2026-04-25 16:28 53.62843 9.99767 45 ft 10 kts 329°
2026-04-25 16:28 53.63009 9.99621 45 ft 58 kts 333°
2026-04-25 16:29 53.63561 9.99145 47 ft 118 kts 333°
2026-04-25 16:29 53.64427 9.98410 253 ft 147 kts 327°
2026-04-25 16:29 53.65335 9.97649 1041 ft 145 kts 328°
2026-04-25 16:29 53.66238 9.96893 1811 ft 147 kts 327°
2026-04-25 16:30 53.67230 9.96040 2143 ft 172 kts 327°
2026-04-25 16:30 53.68357 9.95053 2651 ft 187 kts 329°
2026-04-25 16:30 53.69509 9.94059 3609 ft 185 kts 329°
2026-04-25 16:30 53.70642 9.93085 4611 ft 181 kts 326°
2026-04-25 16:31 53.71522 9.91648 5415 ft 181 kts 294°
2026-04-25 16:31 53.71593 9.89400 5902 ft 212 kts 266°
2026-04-25 16:31 53.71183 9.86849 6388 ft 236 kts 259°
2026-04-25 16:31 53.70631 9.84190 7168 ft 243 kts 258°
2026-04-25 16:32 53.70041 9.81496 8042 ft 246 kts 258°
2026-04-25 16:32 53.69453 9.78772 8939 ft 248 kts 259°
2026-04-25 16:32 53.68872 9.76009 9825 ft 251 kts 259°
2026-04-25 16:32 53.68293 9.73187 10462 ft 263 kts 259°
2026-04-25 16:33 53.67690 9.70136 10722 ft 286 kts 259°
2026-04-25 16:33 53.67046 9.66853 11176 ft 301 kts 259°
2026-04-25 16:33 53.66604 9.64623 11631 ft 305 kts 259°
2026-04-25 16:33 53.65473 9.60193 12598 ft 321 kts 246°
2026-04-25 16:34 53.64003 9.57233 13326 ft 339 kts 231°
2026-04-25 16:34 53.62007 9.54924 14025 ft 357 kts 217°
2026-04-25 16:34 53.59806 9.52924 14638 ft 361 kts 217°
2026-04-25 16:34 53.57586 9.50908 15273 ft 365 kts 217°
2026-04-25 16:35 53.56069 9.49529 15705 ft 367 kts 217°
2026-04-25 16:35 53.53842 9.47498 16339 ft 371 kts 217°
2026-04-25 16:35 53.51558 9.45407 16977 ft 376 kts 217°
2026-04-25 16:35 53.49251 9.43294 17598 ft 380 kts 217°
2026-04-25 16:36 53.46916 9.41162 18212 ft 384 kts 217°
2026-04-25 16:36 53.45357 9.39738 18584 ft 387 kts 217°
2026-04-25 16:36 53.42172 9.36833 19311 ft 391 kts 217°
2026-04-25 16:36 53.39769 9.34652 19866 ft 394 kts 217°
2026-04-25 16:37 53.37346 9.32464 20405 ft 398 kts 216°
2026-04-25 16:37 53.34900 9.30259 20963 ft 401 kts 216°
2026-04-25 16:37 53.32329 9.28303 21521 ft 412 kts 206°
2026-04-25 16:37 53.29515 9.27094 22061 ft 424 kts 197°
2026-04-25 16:38 53.26600 9.26235 22602 ft 427 kts 197°
2026-04-25 16:38 53.23666 9.25369 23119 ft 430 kts 197°
2026-04-25 16:38 53.20709 9.24492 23630 ft 433 kts 197°
2026-04-25 16:38 53.17763 9.23614 24044 ft 436 kts 197°
2026-04-25 16:39 53.14760 9.22719 24458 ft 439 kts 197°
2026-04-25 16:39 53.11748 9.21822 24861 ft 442 kts 197°
2026-04-25 16:39 53.08698 9.20920 25249 ft 444 kts 197°
2026-04-25 16:39 53.05645 9.20024 25627 ft 447 kts 197°
2026-04-25 16:40 53.02569 9.19122 25997 ft 450 kts 197°
2026-04-25 16:40 52.99519 9.18225 26357 ft 452 kts 197°
2026-04-25 16:40 52.96432 9.17171 26715 ft 450 kts 202°
2026-04-25 16:40 52.93499 9.15448 27062 ft 445 kts 211°
2026-04-25 16:41 52.90754 9.13132 27390 ft 443 kts 215°
2026-04-25 16:41 52.88916 9.11506 27594 ft 445 kts 214°
2026-04-25 16:41 52.82529 9.05879 28393 ft 450 kts 214°
2026-04-25 16:42 52.79754 9.03457 28725 ft 453 kts 214°
2026-04-25 16:42 52.76959 9.01028 29045 ft 455 kts 214°
2026-04-25 16:42 52.74146 8.98592 29355 ft 457 kts 214°
2026-04-25 16:42 52.71321 8.96148 29648 ft 459 kts 214°
2026-04-25 16:43 52.68483 8.93690 29946 ft 461 kts 214°
2026-04-25 16:43 52.65676 8.91253 30193 ft 464 kts 213°
2026-04-25 16:43 52.62815 8.88766 30419 ft 466 kts 213°
2026-04-25 16:43 52.59945 8.86273 30655 ft 467 kts 213°
2026-04-25 16:44 52.57062 8.83777 30892 ft 469 kts 213°
2026-04-25 16:44 52.54172 8.81284 31125 ft 470 kts 213°
2026-04-25 16:44 52.51278 8.78792 31446 ft 468 kts 213°
2026-04-25 16:44 52.48391 8.76312 31766 ft 467 kts 213°
2026-04-25 16:45 52.45520 8.73847 32095 ft 466 kts 213°
2026-04-25 16:45 52.42648 8.71384 32397 ft 464 kts 213°
2026-04-25 16:45 52.39794 8.68934 32744 ft 463 kts 213°
2026-04-25 16:45 52.36948 8.66490 33072 ft 461 kts 213°
2026-04-25 16:46 52.34102 8.64051 33399 ft 460 kts 213°
2026-04-25 16:46 52.31268 8.61630 33735 ft 459 kts 213°
2026-04-25 16:46 52.28523 8.59028 34054 ft 453 kts 220°
2026-04-25 16:46 52.26866 8.56996 34245 ft 448 kts 226°
2026-04-25 16:47 52.23954 8.52243 34601 ft 440 kts 234°
2026-04-25 16:47 52.21911 8.48545 34877 ft 439 kts 234°
2026-04-25 16:47 52.19863 8.44858 35112 ft 438 kts 234°
2026-04-25 16:47 52.17814 8.41185 35366 ft 438 kts 234°
2026-04-25 16:48 52.15766 8.37524 35603 ft 437 kts 233°
2026-04-25 16:48 52.13719 8.33871 35842 ft 436 kts 233°
2026-04-25 16:48 52.11673 8.30226 36048 ft 436 kts 233°
2026-04-25 16:48 52.09622 8.26577 36121 ft 435 kts 233°
2026-04-25 16:49 52.05538 8.19332 36123 ft 434 kts 233°
2026-04-25 16:49 52.01457 8.12109 36122 ft 434 kts 233°
2026-04-25 16:50 51.97381 8.04901 36126 ft 433 kts 233°
2026-04-25 16:50 51.93299 7.97714 36130 ft 433 kts 233°
2026-04-25 16:51 51.89240 7.90588 36137 ft 433 kts 232°
2026-04-25 16:51 51.85811 7.84589 36138 ft 433 kts 232°
2026-04-25 16:52 51.81056 7.76270 36132 ft 433 kts 232°
2026-04-25 16:52 51.76955 7.69128 36116 ft 433 kts 232°
2026-04-25 16:53 51.70583 7.58722 36136 ft 440 kts 221°
2026-04-25 16:54 51.65312 7.53559 36138 ft 445 kts 214°
2026-04-25 16:54 51.59925 7.48647 36147 ft 445 kts 214°
2026-04-25 16:55 51.54536 7.43744 36135 ft 445 kts 214°
2026-04-25 16:55 51.49138 7.38842 36137 ft 445 kts 214°
2026-04-25 16:56 51.43741 7.33952 36145 ft 445 kts 214°
2026-04-25 16:56 51.38335 7.29070 36147 ft 446 kts 214°
2026-04-25 16:57 51.32966 7.24253 36137 ft 446 kts 214°
2026-04-25 16:57 51.27562 7.19409 36151 ft 446 kts 214°
2026-04-25 16:58 51.22151 7.14569 36144 ft 446 kts 213°
2026-04-25 16:58 51.16745 7.09730 36159 ft 445 kts 213°
2026-04-25 16:59 51.11341 7.04906 36147 ft 445 kts 213°
2026-04-25 16:59 51.05931 7.00113 36161 ft 445 kts 213°
2026-04-25 17:00 51.00523 6.95330 36165 ft 445 kts 213°
2026-04-25 17:00 50.95124 6.90558 36168 ft 445 kts 213°
2026-04-25 17:01 50.89715 6.85796 36177 ft 445 kts 213°
2026-04-25 17:01 50.84309 6.81047 36176 ft 444 kts 213°
2026-04-25 17:02 50.78905 6.76298 36173 ft 444 kts 213°
2026-04-25 17:02 50.73487 6.71567 36175 ft 444 kts 213°
2026-04-25 17:03 50.68068 6.66863 36159 ft 444 kts 213°
2026-04-25 17:03 50.62654 6.62166 36161 ft 444 kts 213°
2026-04-25 17:03 50.60063 6.59579 36154 ft 438 kts 224°
2026-04-25 17:04 50.57989 6.56229 36152 ft 431 kts 234°
2026-04-25 17:04 50.54128 6.49014 36142 ft 431 kts 234°
2026-04-25 17:05 50.50280 6.41796 36137 ft 431 kts 234°
2026-04-25 17:05 50.44479 6.31014 36133 ft 430 kts 233°
2026-04-25 17:06 50.40612 6.23856 36145 ft 430 kts 233°
2026-04-25 17:06 50.36740 6.16709 36148 ft 430 kts 233°
2026-04-25 17:07 50.32870 6.09575 36154 ft 429 kts 233°
2026-04-25 17:07 50.29001 6.02454 36172 ft 429 kts 233°
2026-04-25 17:08 50.25123 5.95355 36165 ft 429 kts 233°
2026-04-25 17:08 50.21249 5.88284 36177 ft 428 kts 233°
2026-04-25 17:09 50.17381 5.81228 36182 ft 427 kts 233°
2026-04-25 17:09 50.13514 5.74189 36179 ft 427 kts 233°
2026-04-25 17:10 50.09642 5.67176 36182 ft 427 kts 233°
2026-04-25 17:10 50.05795 5.60227 36169 ft 426 kts 232°
2026-04-25 17:11 50.01913 5.53244 36174 ft 426 kts 232°
2026-04-25 17:11 49.98034 5.46276 36174 ft 426 kts 232°
2026-04-25 17:12 49.94133 5.39343 36180 ft 426 kts 231°
2026-04-25 17:12 49.90219 5.32437 36180 ft 426 kts 231°
2026-04-25 17:13 49.87601 5.27831 36175 ft 425 kts 231°
2026-04-25 17:13 49.82393 5.18672 36165 ft 425 kts 231°
2026-04-25 17:14 49.78477 5.11800 36156 ft 426 kts 231°
2026-04-25 17:14 49.74556 5.04926 36144 ft 426 kts 231°
2026-04-25 17:15 49.70642 4.98039 36154 ft 426 kts 232°
2026-04-25 17:15 49.66762 4.91117 36152 ft 426 kts 231°
2026-04-25 17:16 49.64819 4.87656 35528 ft 428 kts 231°
2026-04-25 17:16 49.62866 4.84162 34640 ft 431 kts 233°
2026-04-25 17:16 49.61212 4.80331 33756 ft 428 kts 245°
2026-04-25 17:16 49.60115 4.76087 32950 ft 425 kts 256°
2026-04-25 17:17 49.59586 4.71636 32239 ft 420 kts 266°
2026-04-25 17:17 49.59541 4.67152 31578 ft 417 kts 271°
2026-04-25 17:17 49.59559 4.62702 30942 ft 414 kts 271°
2026-04-25 17:17 49.59575 4.58283 30340 ft 411 kts 271°
2026-04-25 17:18 49.59591 4.53899 29681 ft 407 kts 271°
2026-04-25 17:18 49.59607 4.49554 29037 ft 404 kts 271°
2026-04-25 17:18 49.59623 4.45246 28400 ft 401 kts 270°
2026-04-25 17:18 49.59637 4.41014 27777 ft 398 kts 270°
2026-04-25 17:19 49.59648 4.36698 27177 ft 395 kts 270°
2026-04-25 17:19 49.59658 4.32534 26598 ft 392 kts 271°
2026-04-25 17:19 49.59666 4.28344 26029 ft 390 kts 271°
2026-04-25 17:19 49.59672 4.24184 25474 ft 387 kts 271°
2026-04-25 17:20 49.59675 4.20045 24941 ft 384 kts 271°
2026-04-25 17:20 49.59671 4.15939 24401 ft 382 kts 271°
2026-04-25 17:20 49.59664 4.11857 23912 ft 380 kts 269°
2026-04-25 17:20 49.59323 4.07823 23369 ft 379 kts 257°
2026-04-25 17:21 49.58429 4.04008 22821 ft 379 kts 245°
2026-04-25 17:21 49.57076 4.00519 22291 ft 379 kts 239°
2026-04-25 17:21 49.55646 3.97119 21772 ft 376 kts 239°
2026-04-25 17:21 49.54224 3.93747 21272 ft 374 kts 239°
2026-04-25 17:22 49.53288 3.91530 20951 ft 372 kts 239°
2026-04-25 17:22 49.52335 3.89274 20623 ft 371 kts 239°
2026-04-25 17:22 49.50477 3.84894 19987 ft 368 kts 239°
2026-04-25 17:22 49.49081 3.81609 19510 ft 365 kts 239°
2026-04-25 17:23 49.47786 3.78279 19054 ft 361 kts 247°
2026-04-25 17:23 49.46943 3.74683 18594 ft 356 kts 258°
2026-04-25 17:23 49.46335 3.70998 18096 ft 354 kts 258°
2026-04-25 17:23 49.45731 3.67371 17661 ft 350 kts 258°
2026-04-25 17:24 49.45119 3.63769 17307 ft 344 kts 257°
2026-04-25 17:24 49.44517 3.60233 16920 ft 340 kts 257°
2026-04-25 17:24 49.43922 3.56730 16464 ft 338 kts 258°
2026-04-25 17:24 49.43331 3.53245 16023 ft 336 kts 257°
2026-04-25 17:25 49.42750 3.49828 15606 ft 334 kts 257°
2026-04-25 17:25 49.42163 3.46380 15233 ft 333 kts 257°
2026-04-25 17:25 49.41389 3.43020 15147 ft 335 kts 250°
2026-04-25 17:25 49.40495 3.39699 15165 ft 336 kts 250°
2026-04-25 17:26 49.39606 3.36381 15165 ft 336 kts 250°
2026-04-25 17:26 49.38722 3.33065 15162 ft 336 kts 250°
2026-04-25 17:26 49.37835 3.29745 15160 ft 336 kts 250°
2026-04-25 17:26 49.36947 3.26431 15164 ft 336 kts 250°
2026-04-25 17:27 49.36053 3.23114 15161 ft 336 kts 250°
2026-04-25 17:27 49.35157 3.19802 15164 ft 336 kts 250°
2026-04-25 17:27 49.34262 3.16492 15162 ft 336 kts 250°
2026-04-25 17:27 49.33669 3.14298 15165 ft 336 kts 249°
2026-04-25 17:28 49.32474 3.09878 15165 ft 336 kts 249°
2026-04-25 17:28 49.31579 3.06578 15166 ft 335 kts 249°
2026-04-25 17:28 49.30682 3.03277 15164 ft 335 kts 249°
2026-04-25 17:28 49.29785 2.99977 15158 ft 335 kts 249°
2026-04-25 17:29 49.28888 2.96687 14996 ft 331 kts 249°
2026-04-25 17:29 49.28016 2.93490 14873 ft 320 kts 249°
2026-04-25 17:29 49.27174 2.90401 14752 ft 309 kts 249°
2026-04-25 17:29 49.26358 2.87404 14565 ft 302 kts 249°
2026-04-25 17:30 49.25552 2.84446 14269 ft 300 kts 249°
2026-04-25 17:30 49.24750 2.81511 13946 ft 298 kts 249°
2026-04-25 17:30 49.23951 2.78592 13575 ft 297 kts 249°
2026-04-25 17:30 49.23153 2.75685 13202 ft 296 kts 249°
2026-04-25 17:31 49.22354 2.72787 12828 ft 295 kts 249°
2026-04-25 17:31 49.21570 2.69946 12475 ft 294 kts 249°
2026-04-25 17:31 49.20765 2.67037 12190 ft 292 kts 249°
2026-04-25 17:31 49.19975 2.64176 12154 ft 293 kts 249°
2026-04-25 17:32 49.19191 2.61337 12161 ft 293 kts 248°
2026-04-25 17:32 49.18425 2.58446 12162 ft 293 kts 254°
2026-04-25 17:32 49.18044 2.55404 12164 ft 292 kts 268°
2026-04-25 17:32 49.17983 2.52349 12114 ft 282 kts 269°
2026-04-25 17:33 49.17925 2.49402 11984 ft 273 kts 270°
2026-04-25 17:33 49.17893 2.46553 11856 ft 263 kts 270°
2026-04-25 17:33 49.17683 2.43822 11711 ft 257 kts 256°
2026-04-25 17:33 49.17135 2.41237 11442 ft 255 kts 252°
2026-04-25 17:34 49.16541 2.38682 11137 ft 255 kts 252°
2026-04-25 17:34 49.15940 2.36139 10801 ft 255 kts 252°
2026-04-25 17:34 49.15341 2.33597 10484 ft 254 kts 252°
2026-04-25 17:34 49.14742 2.31061 10178 ft 253 kts 252°
2026-04-25 17:35 49.14139 2.28534 9829 ft 253 kts 251°
2026-04-25 17:35 49.13529 2.26021 9487 ft 252 kts 252°
2026-04-25 17:35 49.12916 2.23525 9139 ft 251 kts 252°
2026-04-25 17:35 49.12316 2.21027 8777 ft 250 kts 252°
2026-04-25 17:36 49.11715 2.18535 8412 ft 249 kts 252°
2026-04-25 17:36 49.11134 2.16043 8052 ft 249 kts 252°
2026-04-25 17:36 49.10553 2.13566 7697 ft 248 kts 252°
2026-04-25 17:36 49.09976 2.11094 7347 ft 246 kts 253°
2026-04-25 17:37 49.09404 2.08635 7000 ft 246 kts 252°
2026-04-25 17:37 49.08833 2.06179 6657 ft 245 kts 251°
2026-04-25 17:37 49.08275 2.03728 6315 ft 244 kts 252°
2026-04-25 17:37 49.07720 2.01293 5960 ft 242 kts 252°
2026-04-25 17:38 49.07175 1.98874 5630 ft 240 kts 252°
2026-04-25 17:38 49.06821 1.97283 5412 ft 239 kts 252°
2026-04-25 17:38 49.05673 1.94473 5045 ft 234 kts 215°
2026-04-25 17:38 49.04167 1.93585 5009 ft 236 kts 188°
2026-04-25 17:39 49.02525 1.93494 5007 ft 237 kts 171°
2026-04-25 17:39 49.00997 1.94386 5009 ft 237 kts 144°
2026-04-25 17:39 48.99908 1.96244 5009 ft 237 kts 116°
2026-04-25 17:39 48.99408 1.98631 5010 ft 238 kts 103°
2026-04-25 17:40 48.99015 2.01082 5010 ft 238 kts 103°
2026-04-25 17:40 48.98623 2.03531 5009 ft 238 kts 103°
2026-04-25 17:40 48.98234 2.05949 5009 ft 238 kts 103°
2026-04-25 17:40 48.97839 2.08401 5009 ft 238 kts 103°
2026-04-25 17:41 48.97443 2.10851 5007 ft 238 kts 103°
2026-04-25 17:41 48.97065 2.13340 5006 ft 238 kts 97°
2026-04-25 17:41 48.97018 2.15817 5007 ft 238 kts 86°
2026-04-25 17:41 48.97154 2.18330 5005 ft 238 kts 84°
2026-04-25 17:42 48.97308 2.20847 4879 ft 238 kts 84°
2026-04-25 17:42 48.97453 2.23347 4597 ft 236 kts 84°
2026-04-25 17:42 48.97593 2.25829 4289 ft 234 kts 83°
2026-04-25 17:42 48.97732 2.28285 3984 ft 231 kts 83°
2026-04-25 17:43 48.97868 2.30711 3679 ft 228 kts 83°
2026-04-25 17:43 48.98002 2.33109 3388 ft 225 kts 83°
2026-04-25 17:43 48.98130 2.35414 3079 ft 211 kts 82°
2026-04-25 17:43 48.98250 2.37581 2802 ft 199 kts 82°
2026-04-25 17:44 48.98368 2.39628 2589 ft 187 kts 82°
2026-04-25 17:44 48.98481 2.41503 2441 ft 169 kts 82°
2026-04-25 17:44 48.98586 2.43206 2201 ft 155 kts 80°
2026-04-25 17:44 48.98680 2.44788 1954 ft 147 kts 82°
2026-04-25 17:45 48.98719 2.46300 1747 ft 145 kts 85°
2026-04-25 17:45 48.98727 2.46817 1686 ft 144 kts 83°
2026-04-25 17:45 48.98866 2.49317 1417 ft 142 kts 78°
2026-04-25 17:45 48.98963 2.50826 1202 ft 144 kts 82°
2026-04-25 17:46 48.99041 2.52350 982 ft 144 kts 78°
2026-04-25 17:46 48.99140 2.53840 775 ft 139 kts 79°
2026-04-25 17:46 48.99214 2.55328 583 ft 143 kts 78°
2026-04-25 17:46 48.99302 2.56816 385 ft 140 kts 80°
2026-04-25 17:47 48.99377 2.58142 355 ft 104 kts 85°
2026-04-25 17:47 48.99418 2.58919 355 ft 44 kts 85°
2026-04-25 17:47 48.99467 2.59263 353 ft 29 kts 68°
2026-04-25 17:47 48.99542 2.59499 358 ft 11 kts 67°
2026-04-25 17:48 48.99650 2.59697 357 ft 15 kts
2026-04-25 17:48 48.99758 2.59678 354 ft 16 kts 353°
2026-04-25 17:48 48.99878 2.59666 354 ft 18 kts 358°
2026-04-25 17:49 48.99936 2.59658 357 ft 1 kts 353°
2026-04-25 17:49 48.99945 2.59656 358 ft 3 kts 353°
2026-04-25 17:50 48.99972 2.59652 354 ft 5 kts 355°
2026-04-25 17:50 49.00017 2.59646 354 ft 8 kts 355°
2026-04-25 17:50 49.00079 2.59639 354 ft 10 kts 355°
2026-04-25 17:50 49.00154 2.59630 359 ft 12 kts 355°
2026-04-25 17:51 49.00243 2.59618 354 ft 14 kts 355°
2026-04-25 17:51 49.00345 2.59605 354 ft 16 kts 355°
2026-04-25 17:51 49.00459 2.59592 354 ft 17 kts 355°
2026-04-25 17:51 49.00578 2.59579 354 ft 17 kts 355°
2026-04-25 17:52 49.00697 2.59563 354 ft 17 kts 354°
2026-04-25 17:52 49.00736 2.59557 354 ft 17 kts 355°
2026-04-25 17:52 49.00939 2.59537 361 ft 11 kts 355°
2026-04-25 17:52 49.00998 2.59479 359 ft 10 kts 277°
2026-04-25 17:53 49.00999 2.59374 360 ft 10 kts 267°
2026-04-25 17:53 49.00993 2.59274 354 ft 9 kts 266°
2026-04-25 17:53 49.00989 2.59179 354 ft 9 kts 266°
2026-04-25 17:53 49.00981 2.59078 359 ft 12 kts 263°
2026-04-25 17:54 49.00955 2.58935 358 ft 16 kts 258°
2026-04-25 17:54 49.00942 2.58751 354 ft 19 kts 266°
2026-04-25 17:54 49.00931 2.58552 356 ft 18 kts 265°
2026-04-25 17:54 49.00921 2.58368 354 ft 17 kts 265°
2026-04-25 17:55 49.00912 2.58192 354 ft 16 kts 266°
2026-04-25 17:55 49.00904 2.58026 354 ft 15 kts 265°
2026-04-25 17:55 49.00895 2.57870 363 ft 14 kts 264°
2026-04-25 17:55 49.00864 2.57740 357 ft 13 kts 209°
2026-04-25 17:56 49.00791 2.57708 360 ft 8 kts 210°
2026-04-25 17:56 49.00751 2.57653 359 ft 8 kts 225°
2026-04-25 17:56 49.00718 2.57600 357 ft 6 kts 227°
2026-04-25 17:56 49.00701 2.57573 354 ft 2 kts 226°
2026-04-25 17:57 49.00695 2.57564 354 ft 1 kts 226°
2026-04-25 17:57 49.00692 2.57559 361 ft 0 kts 226°